Weather History for Placerville, CA

Change the Weather History Date:

Sunday, May 5, 2013

  Actual Average Record
Temperature  
Mean Temperature 56 °F -  
Max Temperature 64 °F 71 °F 80 °F (2011)
Min Temperature 48 °F 44 °F 44 °F (2014)
Degree Days  
Heating Degree Days 9    
Growing Degree Days 6 (Base 50)    
Moisture  
Dew Point 40 °F    
Average Humidity 56    
Maximum Humidity 82    
Minimum Humidity 32    
Precipitation  
Precipitation 0.00 in - - ()
Sea Level Pressure  
Sea Level Pressure 29.74 in    
Wind  
Wind Speed 6 mph (SSW)    
Max Wind Speed 9 mph    
Max Gust Speed -    
Visibility 10 miles    
Events      
Averages and records for this station are not official NWS values.
T = Trace of Precipitation, MM = Missing Value Source: NWS Daily Summary

Daily Weather History Graph

Daily Weather History Graph

Search for Another Location

Airport:

Trip Planner

Search our weather history database for the weather conditions in past years. The results will help you decide how hot, cold, wet, or windy it might be!

Date:

Astronomy

May. 05, 2013 Rise Set
Actual Time 6:00 AM PDT 7:59 PM PDT
Civil Twilight 5:31 AM PDT 8:28 PM PDT
Nautical Twilight 4:56 AM PDT 9:04 PM PDT
Astronomical Twilight 4:18 AM PDT 9:42 PM PDT
Moon 3:31 AM PDT (5/5) 4:06 PM PDT (5/5)
Length of Visible Light 14h 57m
Length of Day
13h 58m
Waning Crescent, 17% of the Moon is Illuminated
May 5
Waning Crescent
May 9
New
May 17
First Quarter
May 24
Full
May 31
Last Quarter

Hourly Weather History & Observations

Time (PDT) Temp. Dew Point Humidity Pressure Visibility Wind Dir Wind Speed Gust Speed Precip Events Conditions
12:15 AM 62.6 °F 32.0 °F 32% 29.65 in 10.0 mi ESE 8.1 mph - N/A   Scattered Clouds
12:35 AM 62.6 °F 32.0 °F 32% 29.65 in 10.0 mi ESE 9.2 mph - N/A   Partly Cloudy
12:55 AM 60.8 °F 32.0 °F 34% 29.65 in 10.0 mi ESE 9.2 mph - N/A   Scattered Clouds
1:15 AM 62.6 °F 32.0 °F 32% 29.64 in 10.0 mi ESE 8.1 mph - N/A   Mostly Cloudy
1:35 AM 60.8 °F 32.0 °F 34% 29.64 in 10.0 mi ESE 8.1 mph - N/A   Mostly Cloudy
1:55 AM 60.8 °F 32.0 °F 34% 29.63 in 10.0 mi ESE 8.1 mph - N/A   Mostly Cloudy
2:15 AM 59.0 °F 32.0 °F 36% 29.62 in 10.0 mi East 6.9 mph - N/A   Mostly Cloudy
2:35 AM 59.0 °F 32.0 °F 36% 29.62 in 10.0 mi East 5.8 mph - N/A   Mostly Cloudy
2:55 AM 59.0 °F 32.0 °F 36% 29.62 in 10.0 mi South 3.5 mph - N/A   Mostly Cloudy
3:15 AM 57.2 °F 32.0 °F 38% 29.62 in 10.0 mi WSW 3.5 mph - N/A   Mostly Cloudy
3:35 AM 51.8 °F 37.4 °F 58% 29.64 in 10.0 mi SW 6.9 mph - N/A   Mostly Cloudy
3:55 AM 50.0 °F 39.2 °F 66% 29.65 in 10.0 mi SW 4.6 mph - N/A   Overcast
4:15 AM 50.0 °F 39.2 °F 66% 29.66 in 10.0 mi South 5.8 mph - N/A   Mostly Cloudy
4:35 AM 50.0 °F 39.2 °F 66% 29.67 in 10.0 mi South 5.8 mph - N/A   Mostly Cloudy
4:55 AM 50.0 °F 39.2 °F 66% 29.67 in 10.0 mi ESE 4.6 mph - N/A   Overcast
5:15 AM 50.0 °F 39.2 °F 66% 29.66 in 10.0 mi East 5.8 mph - N/A   Overcast
5:35 AM 51.8 °F 37.4 °F 58% 29.66 in 10.0 mi East 8.1 mph - N/A   Overcast
5:55 AM 55.4 °F 35.6 °F 47% 29.66 in 10.0 mi ESE 6.9 mph - N/A   Scattered Clouds
6:15 AM 51.8 °F 39.2 °F 62% 29.67 in 10.0 mi West 5.8 mph - N/A   Clear
6:35 AM 50.0 °F 39.2 °F 66% 29.68 in 10.0 mi NNW 4.6 mph - N/A   Clear
6:55 AM 48.2 °F 39.2 °F 71% 29.68 in 10.0 mi NW 3.5 mph - N/A   Clear
7:15 AM 48.2 °F 41.0 °F 76% 29.69 in 10.0 mi Calm Calm - N/A   Clear
7:35 AM 48.2 °F 41.0 °F 76% 29.70 in 10.0 mi WSW 4.6 mph - N/A   Clear
7:55 AM 48.2 °F 42.8 °F 82% 29.71 in 10.0 mi SW 3.5 mph - N/A   Clear
8:15 AM 50.0 °F 42.8 °F 76% 29.71 in 10.0 mi WSW 3.5 mph - N/A   Clear
8:35 AM 50.0 °F 42.8 °F 76% 29.72 in 10.0 mi Calm Calm - N/A   Clear
8:55 AM 53.6 °F 42.8 °F 67% 29.73 in 10.0 mi Calm Calm - N/A   Partly Cloudy
9:15 AM 51.8 °F 42.8 °F 71% 29.73 in 10.0 mi NW 4.6 mph - N/A   Partly Cloudy
9:35 AM 53.6 °F 42.8 °F 67% 29.73 in 10.0 mi NNW 4.6 mph - N/A   Clear
9:55 AM 55.4 °F 44.6 °F 67% 29.74 in 10.0 mi West 6.9 mph - N/A   Clear
10:15 AM 55.4 °F 44.6 °F 67% 29.74 in 10.0 mi West 4.6 mph - N/A   Clear
10:35 AM 59.0 °F 44.6 °F 59% 29.75 in 10.0 mi WSW 3.5 mph - N/A   Clear
11:15 AM 59.0 °F 44.6 °F 59% 29.76 in 10.0 mi WNW 3.5 mph - N/A   Clear
11:35 AM 59.0 °F 44.6 °F 59% 29.76 in 10.0 mi West 8.1 mph - N/A   Clear
11:55 AM 59.0 °F 44.6 °F 59% 29.76 in 10.0 mi SW 5.8 mph - N/A   Clear
12:15 PM 62.6 °F 44.6 °F 52% 29.76 in 10.0 mi SW 6.9 mph - N/A   Clear
12:35 PM 62.6 °F 42.8 °F 48% 29.76 in 10.0 mi WSW 5.8 mph - N/A   Clear
12:55 PM 62.6 °F 42.8 °F 48% 29.76 in 10.0 mi SSW 6.9 mph - N/A   Clear
1:15 PM 64.4 °F 44.6 °F 49% 29.75 in 10.0 mi SSW 4.6 mph - N/A   Clear
1:35 PM 62.6 °F 44.6 °F 52% 29.76 in 10.0 mi SW 6.9 mph - N/A   Clear
1:55 PM 62.6 °F 44.6 °F 52% 29.76 in 10.0 mi SSW 9.2 mph - N/A   Clear
2:15 PM 62.6 °F 44.6 °F 52% 29.76 in 10.0 mi SW 6.9 mph - N/A   Clear
2:35 PM 62.6 °F 44.6 °F 52% 29.76 in 10.0 mi SSW 8.1 mph - N/A   Clear
2:55 PM 62.6 °F 44.6 °F 52% 29.77 in 10.0 mi South 6.9 mph - N/A   Clear
3:15 PM 62.6 °F 44.6 °F 52% 29.77 in 10.0 mi SW 3.5 mph - N/A   Clear
3:35 PM 62.6 °F 44.6 °F 52% 29.77 in 10.0 mi SSW 4.6 mph - N/A   Clear
3:55 PM 62.6 °F 42.8 °F 48% 29.77 in 10.0 mi SW 6.9 mph - N/A   Partly Cloudy
4:15 PM 62.6 °F 42.8 °F 48% 29.77 in 10.0 mi SSW 4.6 mph - N/A   Partly Cloudy
4:35 PM 62.6 °F 41.0 °F 45% 29.77 in 10.0 mi SSW 4.6 mph - N/A   Clear
5:15 PM 60.8 °F 41.0 °F 48% 29.78 in 10.0 mi SW 4.6 mph - N/A   Mostly Cloudy
5:35 PM 60.8 °F 41.0 °F 48% 29.79 in 10.0 mi SW 5.8 mph - N/A   Mostly Cloudy
5:55 PM 59.0 °F 41.0 °F 51% 29.79 in 10.0 mi SSW 5.8 mph - N/A   Scattered Clouds
6:15 PM 59.0 °F 41.0 °F 51% 29.80 in 10.0 mi SW 3.5 mph - N/A   Clear
6:35 PM 59.0 °F 41.0 °F 51% 29.80 in 10.0 mi Calm Calm - N/A   Clear
6:55 PM 57.2 °F 41.0 °F 55% 29.80 in 10.0 mi SW 3.5 mph - N/A   Clear
7:35 PM 57.2 °F 41.0 °F 55% 29.81 in 10.0 mi South 9.2 mph - N/A   Clear
7:55 PM 55.4 °F 41.0 °F 58% 29.82 in 10.0 mi SSE 3.5 mph - N/A   Clear
8:15 PM 55.4 °F 41.0 °F 58% 29.82 in 10.0 mi South 4.6 mph - N/A   Clear
8:35 PM 55.4 °F 41.0 °F 58% 29.82 in 10.0 mi South 6.9 mph - N/A   Scattered Clouds
8:55 PM 53.6 °F 41.0 °F 62% 29.83 in 10.0 mi South 4.6 mph - N/A   Mostly Cloudy
9:15 PM 53.6 °F 41.0 °F 62% 29.83 in 10.0 mi South 9.2 mph - N/A   Scattered Clouds
9:35 PM 53.6 °F 41.0 °F 62% 29.84 in 10.0 mi South 6.9 mph - N/A   Mostly Cloudy
9:55 PM 53.6 °F 41.0 °F 62% 29.85 in 10.0 mi SSE 6.9 mph - N/A   Mostly Cloudy
10:15 PM 53.6 °F 41.0 °F 62% 29.86 in 10.0 mi SSE 5.8 mph - N/A   Overcast
10:35 PM 53.6 °F 41.0 °F 62% 29.85 in 10.0 mi SE 4.6 mph - N/A   Overcast
10:55 PM 53.6 °F 41.0 °F 62% 29.85 in 10.0 mi ESE 5.8 mph - N/A   Overcast
11:15 PM 53.6 °F 41.0 °F 62% 29.86 in 10.0 mi ESE 6.9 mph - N/A   Overcast
11:35 PM 53.6 °F 41.0 °F 62% 29.85 in 10.0 mi ESE 5.8 mph - N/A   Mostly Cloudy
11:55 PM 53.6 °F 41.0 °F 62% 29.86 in 10.0 mi ESE 6.9 mph - N/A   Mostly Cloudy